TimeEDT,TemperatureF,Dew PointF,Humidity,Sea Level PressureIn,VisibilityMPH,Wind Direction,Wind SpeedMPH,Gust SpeedMPH,PrecipitationIn,Events,Conditions,WindDirDegrees,DateUTC
12:15 AM,51.8,50.0,94,30.08,2.5,Calm,Calm,-,N/A,,Clear,0,2013-09-04 04:15:00
12:35 AM,50.0,48.2,94,30.08,0.5,Calm,Calm,-,N/A,,Unknown,0,2013-09-04 04:35:00
12:55 AM,48.2,48.2,100,30.08,0.2,Calm,Calm,-,N/A,,Overcast,0,2013-09-04 04:55:00
1:15 AM,48.2,48.2,100,30.09,1.2,Calm,Calm,-,N/A,,Scattered Clouds,0,2013-09-04 05:15:00
1:35 AM,48.2,48.2,100,30.08,0.5,Calm,Calm,-,N/A,,Unknown,0,2013-09-04 05:35:00
1:55 AM,48.2,48.2,100,30.08,0.8,Calm,Calm,-,N/A,,Mostly Cloudy,0,2013-09-04 05:55:00
2:15 AM,48.2,46.4,93,30.08,0.5,Calm,Calm,-,N/A,,Unknown,0,2013-09-04 06:15:00
2:35 AM,48.2,48.2,100,30.08,0.2,Calm,Calm,-,N/A,,Overcast,0,2013-09-04 06:35:00
2:55 AM,46.4,46.4,100,30.08,1.5,Calm,Calm,-,N/A,,Scattered Clouds,0,2013-09-04 06:55:00
3:15 AM,46.4,44.6,93,30.09,0.5,Calm,Calm,-,N/A,,Mostly Cloudy,0,2013-09-04 07:15:00
3:35 AM,46.4,46.4,100,30.09,0.8,Calm,Calm,-,N/A,,Mostly Cloudy,0,2013-09-04 07:35:00
3:55 AM,46.4,46.4,100,30.09,0.5,Calm,Calm,-,N/A,,Mostly Cloudy,0,2013-09-04 07:55:00
4:15 AM,48.2,46.4,93,30.09,1.2,Calm,Calm,-,N/A,,Clear,0,2013-09-04 08:15:00
4:35 AM,46.4,44.6,93,30.10,0.5,Calm,Calm,-,N/A,,Mostly Cloudy,0,2013-09-04 08:35:00
4:55 AM,46.4,46.4,100,30.10,0.5,Calm,Calm,-,N/A,,Mostly Cloudy,0,2013-09-04 08:55:00
5:15 AM,46.4,44.6,93,30.11,0.5,Calm,Calm,-,N/A,,Mostly Cloudy,0,2013-09-04 09:15:00
5:35 AM,46.4,44.6,93,30.11,0.2,Calm,Calm,-,N/A,,Overcast,0,2013-09-04 09:35:00
5:55 AM,46.4,44.6,93,30.11,0.5,Calm,Calm,-,N/A,,Mostly Cloudy,0,2013-09-04 09:55:00
6:15 AM,46.4,46.4,100,30.12,3.0,Calm,Calm,-,N/A,,Scattered Clouds,0,2013-09-04 10:15:00
6:35 AM,44.6,42.8,93,30.12,0.5,Calm,Calm,-,N/A,,Overcast,0,2013-09-04 10:35:00
6:55 AM,46.4,44.6,93,30.13,0.2,Calm,Calm,-,N/A,,Overcast,0,2013-09-04 10:55:00
7:15 AM,46.4,46.4,100,30.13,0.2,Calm,Calm,-,N/A,,Overcast,0,2013-09-04 11:15:00
7:35 AM,48.2,46.4,93,30.14,2.5,Calm,Calm,-,N/A,,Mostly Cloudy,0,2013-09-04 11:35:00
7:55 AM,50.0,50.0,100,30.15,5.0,Calm,Calm,-,N/A,,Clear,0,2013-09-04 11:55:00
8:15 AM,53.6,53.6,100,30.15,5.0,Calm,Calm,-,N/A,,Clear,0,2013-09-04 12:15:00
8:35 AM,55.4,53.6,94,30.15,6.0,SW,3.5,-,N/A,,Clear,230,2013-09-04 12:35:00
8:55 AM,55.4,55.4,100,30.15,8.0,Calm,Calm,-,N/A,,Clear,0,2013-09-04 12:55:00
9:15 AM,57.2,55.4,94,30.16,10.0,West,4.6,-,N/A,,Clear,260,2013-09-04 13:15:00
9:35 AM,59.0,55.4,88,30.16,10.0,WSW,4.6,-,N/A,,Clear,250,2013-09-04 13:35:00
9:55 AM,60.8,55.4,82,30.17,10.0,WSW,3.5,-,N/A,,Clear,240,2013-09-04 13:55:00
10:15 AM,62.6,55.4,77,30.17,10.0,West,5.8,-,N/A,,Clear,260,2013-09-04 14:15:00
10:35 AM,64.4,55.4,73,30.17,10.0,West,6.9,-,N/A,,Clear,260,2013-09-04 14:35:00
10:55 AM,66.2,53.6,64,30.17,10.0,West,5.8,-,N/A,,Clear,270,2013-09-04 14:55:00
11:15 AM,66.2,53.6,64,30.17,10.0,SSW,4.6,-,N/A,,Mostly Cloudy,210,2013-09-04 15:15:00
11:35 AM,66.2,53.6,64,30.17,10.0,SW,4.6,-,N/A,,Overcast,230,2013-09-04 15:35:00
11:55 AM,68.0,53.6,60,30.16,10.0,South,4.6,-,N/A,,Scattered Clouds,190,2013-09-04 15:55:00
12:15 PM,69.8,55.4,60,30.16,10.0,SSE,5.8,-,N/A,,Scattered Clouds,160,2013-09-04 16:15:00
12:35 PM,69.8,53.6,56,30.16,10.0,WSW,3.5,-,N/A,,Partly Cloudy,240,2013-09-04 16:35:00
12:55 PM,69.8,55.4,60,30.15,10.0,WSW,4.6,-,N/A,,Scattered Clouds,250,2013-09-04 16:55:00
1:15 PM,71.6,55.4,57,30.15,10.0,West,8.1,-,N/A,,Partly Cloudy,260,2013-09-04 17:15:00
1:35 PM,71.6,55.4,57,30.14,10.0,SW,6.9,-,N/A,,Clear,230,2013-09-04 17:35:00
1:55 PM,71.6,55.4,57,30.14,7.0,SSW,4.6,-,N/A,,Clear,210,2013-09-04 17:55:00
2:15 PM,73.4,53.6,50,30.13,10.0,WSW,3.5,-,N/A,,Clear,250,2013-09-04 18:15:00
2:35 PM,73.4,53.6,50,30.13,10.0,WSW,5.8,-,N/A,,Clear,240,2013-09-04 18:35:00
2:55 PM,73.4,53.6,50,30.12,10.0,WSW,8.1,-,N/A,,Clear,250,2013-09-04 18:55:00
3:15 PM,73.4,53.6,50,30.12,10.0,West,4.6,-,N/A,,Clear,280,2013-09-04 19:15:00
3:35 PM,75.2,55.4,50,30.12,10.0,WNW,5.8,-,N/A,,Clear,290,2013-09-04 19:35:00
3:55 PM,75.2,53.6,47,30.11,10.0,WNW,8.1,-,N/A,,Clear,290,2013-09-04 19:55:00
4:15 PM,75.2,53.6,47,30.12,10.0,WSW,5.8,-,N/A,,Clear,240,2013-09-04 20:15:00
4:35 PM,75.2,55.4,50,30.12,10.0,NW,4.6,-,N/A,,Clear,320,2013-09-04 20:35:00
4:55 PM,77.0,55.4,47,30.11,10.0,WNW,6.9,-,N/A,,Clear,290,2013-09-04 20:55:00
5:15 PM,75.2,53.6,47,30.11,10.0,West,6.9,-,N/A,,Clear,270,2013-09-04 21:15:00
5:35 PM,75.2,53.6,47,30.11,10.0,WNW,4.6,-,N/A,,Clear,300,2013-09-04 21:35:00
5:55 PM,75.2,51.8,44,30.11,10.0,West,5.8,-,N/A,,Clear,270,2013-09-04 21:55:00
6:15 PM,75.2,53.6,47,30.11,10.0,West,4.6,-,N/A,,Clear,270,2013-09-04 22:15:00
6:35 PM,73.4,53.6,50,30.11,10.0,West,5.8,-,N/A,,Clear,260,2013-09-04 22:35:00
6:55 PM,73.4,53.6,50,30.10,10.0,West,4.6,-,N/A,,Clear,270,2013-09-04 22:55:00
7:15 PM,69.8,57.2,64,30.10,10.0,West,3.5,-,N/A,,Clear,260,2013-09-04 23:15:00
7:35 PM,64.4,57.2,77,30.10,10.0,West,3.5,-,N/A,,Clear,260,2013-09-04 23:35:00
7:55 PM,62.6,57.2,82,30.10,10.0,Calm,Calm,-,N/A,,Clear,0,2013-09-04 23:55:00
8:15 PM,60.8,57.2,88,30.11,10.0,Calm,Calm,-,N/A,,Clear,0,2013-09-05 00:15:00
8:35 PM,60.8,55.4,82,30.11,10.0,Calm,Calm,-,N/A,,Clear,0,2013-09-05 00:35:00
8:55 PM,60.8,55.4,82,30.11,10.0,Calm,Calm,-,N/A,,Clear,0,2013-09-05 00:55:00
9:15 PM,57.2,55.4,94,30.13,10.0,Calm,Calm,-,N/A,,Clear,0,2013-09-05 01:15:00
9:35 PM,57.2,55.4,94,30.12,10.0,Calm,Calm,-,N/A,,Clear,0,2013-09-05 01:35:00
9:55 PM,57.2,55.4,94,30.11,10.0,Calm,Calm,-,N/A,,Clear,0,2013-09-05 01:55:00
10:15 PM,57.2,55.4,94,30.12,10.0,Calm,Calm,-,N/A,,Clear,0,2013-09-05 02:15:00
10:35 PM,57.2,55.4,94,30.13,10.0,Calm,Calm,-,N/A,,Clear,0,2013-09-05 02:35:00
10:55 PM,57.2,55.4,94,30.13,10.0,Calm,Calm,-,N/A,,Clear,0,2013-09-05 02:55:00
11:15 PM,55.4,55.4,100,30.13,10.0,Calm,Calm,-,N/A,,Clear,0,2013-09-05 03:15:00
11:35 PM,57.2,55.4,94,30.13,10.0,Calm,Calm,-,N/A,,Clear,0,2013-09-05 03:35:00
11:55 PM,57.2,55.4,94,30.13,10.0,Calm,Calm,-,N/A,,Clear,0,2013-09-05 03:55:00